| time (UTC) | temp C | wind direction | speed KPH | gust KPH | rain 1hr cm | rain 24hr cm | rain mn cm | humidity % | barometer mb |
| 20260505140311 | 12 | 1 | 20.9 | 33.8 | 0.00 | 0.00 | 0.00 | 49 | 1007.6 |
| 20260505130229 | 11 | 1 | 20.9 | 32.2 | 0.00 | 0.00 | 0.00 | 54 | 1005.7 |
| 20260505124719 | 11 | 6 | 24.1 | 40.2 | 0.00 | 0.00 | 0.00 | 53 | 1005.6 |
| 20260505124216 | 11 | 3 | 16.1 | 32.2 | 0.00 | 0.00 | 0.00 | 54 | 1005.4 |
| 20260505123711 | 11 | 0 | 19.3 | 48.3 | 0.00 | 0.00 | 0.00 | 54 | 1005.6 |
| 20260505123208 | 11 | 354 | 24.1 | 37.0 | 0.00 | 0.00 | 0.00 | 54 | 1005.3 |
| 20260505122704 | 11 | 1 | 19.3 | 29.0 | 0.00 | 0.00 | 0.00 | 54 | 1005.1 |
| 20260505122201 | 11 | 316 | 14.5 | 25.7 | 0.00 | 0.00 | 0.00 | 55 | 1005.1 |
| 20260505121653 | 12 | 358 | 11.3 | 27.4 | 0.00 | 0.00 | 0.00 | 54 | 1005.3 |
| 20260505121149 | 12 | 3 | 24.1 | 37.0 | 0.00 | 0.00 | 0.00 | 54 | 1005.1 |
| 20260505120646 | 12 | 358 | 20.9 | 22.5 | 0.00 | 0.00 | 0.00 | 55 | 1005.0 |
| 20260505120141 | 12 | 11 | 12.9 | 25.7 | 0.00 | 0.00 | 0.00 | 56 | 1004.8 |
| 20260505115635 | 12 | 339 | 9.7 | 29.0 | 0.00 | 0.00 | 0.00 | 56 | 1004.8 |
| 20260505115134 | 12 | 358 | 24.1 | 33.8 | 0.00 | 0.00 | 0.00 | 57 | 1004.8 |
| 20260505114630 | 12 | 0 | 12.9 | 27.4 | 0.00 | 0.00 | 0.00 | 57 | 1004.6 |
| 20260505114127 | 12 | 345 | 14.5 | 32.2 | 0.00 | 0.00 | 0.00 | 57 | 1004.4 |
| 20260505113623 | 12 | 353 | 20.9 | 27.4 | 0.00 | 0.00 | 0.00 | 57 | 1004.3 |
| 20260505113120 | 12 | 349 | 12.9 | 29.0 | 0.00 | 0.00 | 0.00 | 57 | 1004.3 |
| 20260505112616 | 12 | 342 | 16.1 | 32.2 | 0.00 | 0.00 | 0.00 | 57 | 1004.6 |
| 20260505112114 | 12 | 353 | 17.7 | 30.6 | 0.00 | 0.00 | 0.00 | 57 | 1004.3 |
| 20260505111608 | 12 | 342 | 17.7 | 30.6 | 0.00 | 0.00 | 0.00 | 58 | 1004.6 |
| 20260505111104 | 12 | 333 | 14.5 | 33.8 | 0.00 | 0.00 | 0.00 | 57 | 1004.2 |
| 20260505110601 | 12 | 3 | 14.5 | 32.2 | 0.00 | 0.00 | 0.00 | 58 | 1004.1 |
| 20260505102033 | 15 | 321 | 17.7 | 38.6 | 0.00 | 0.00 | 0.00 | 52 | 1004.0 |
| 20260505101532 | 15 | 321 | 25.7 | 41.8 | 0.00 | 0.00 | 0.00 | 51 | 1004.1 |
| 20260505101028 | 15 | 333 | 16.1 | 38.6 | 0.00 | 0.00 | 0.00 | 49 | 1003.8 |
| 20260505100525 | 16 | 322 | 27.4 | 48.3 | 0.00 | 0.00 | 0.00 | 44 | 1003.4 |
| 20260505100022 | 16 | 321 | 30.6 | 32.2 | 0.00 | 0.00 | 0.00 | 39 | 1003.1 |
| 20260505095518 | 17 | 325 | 27.4 | 48.3 | 0.00 | 0.00 | 0.00 | 35 | 1003.2 |
| 20260505095014 | 17 | 317 | 19.3 | 43.5 | 0.00 | 0.00 | 0.00 | 33 | 1002.8 |
| 20260505094511 | 18 | 317 | 29.0 | 40.2 | 0.00 | 0.00 | 0.00 | 30 | 1002.8 |
| 20260505094007 | 18 | 320 | 43.5 | 43.5 | 0.00 | 0.00 | 0.00 | 27 | 1002.4 |
| 20260505093503 | 19 | 316 | 17.7 | 40.2 | 0.00 | 0.00 | 0.00 | 26 | 1002.3 |
| 20260505093001 | 20 | 300 | 20.9 | 35.4 | 0.00 | 0.00 | 0.00 | 25 | 1002.2 |
| 20260505092458 | 20 | 316 | 11.3 | 27.4 | 0.00 | 0.00 | 0.00 | 26 | 1002.1 |
| 20260505091956 | 18 | 312 | 11.3 | 19.3 | 0.00 | 0.00 | 0.00 | 29 | 1002.1 |
| 20260505091453 | 18 | 303 | 8.0 | 17.7 | 0.00 | 0.00 | 0.00 | 30 | 1002.1 |
| 20260505090951 | 18 | 312 | 8.0 | 22.5 | 0.00 | 0.00 | 0.00 | 29 | 1002.0 |
| 20260505090449 | 18 | 311 | 6.4 | 16.1 | 0.00 | 0.00 | 0.00 | 29 | 1002.1 |
| 20260505085946 | 18 | 273 | 11.3 | 19.3 | 0.00 | 0.00 | 0.00 | 30 | 1001.7 |
| 20260505085444 | 18 | 258 | 8.0 | 19.3 | 0.00 | 0.00 | 0.00 | 29 | 1001.8 |
| 20260505084942 | 17 | 254 | 12.9 | 17.7 | 0.00 | 0.00 | 0.00 | 30 | 1001.3 |
| 20260505084440 | 17 | 246 | 8.0 | 16.1 | 0.00 | 0.00 | 0.00 | 30 | 1001.6 |
| 20260505083938 | 17 | 246 | 12.9 | 19.3 | 0.00 | 0.00 | 0.00 | 30 | 1001.3 |
| 20260505083435 | 18 | 250 | 11.3 | 22.5 | 0.00 | 0.00 | 0.00 | 30 | 1001.2 |
| 20260505082931 | 18 | 231 | 12.9 | 20.9 | 0.00 | 0.00 | 0.00 | 29 | 1001.4 |
| 20260505082427 | 18 | 251 | 12.9 | 22.5 | 0.00 | 0.00 | 0.00 | 29 | 1001.3 |
| 20260505081924 | 18 | 247 | 14.5 | 22.5 | 0.00 | 0.00 | 0.00 | 29 | 1001.3 |
| 20260505081421 | 18 | 254 | 17.7 | 20.9 | 0.00 | 0.00 | 0.00 | 29 | 1001.2 |
| 20260505080917 | 18 | 254 | 6.4 | 24.1 | 0.00 | 0.00 | 0.00 | 29 | 1001.4 |
| 20260505080414 | 18 | 248 | 14.5 | 20.9 | 0.00 | 0.00 | 0.00 | 28 | 1001.4 |
| 20260505075909 | 18 | 253 | 16.1 | 22.5 | 0.00 | 0.00 | 0.00 | 28 | 1001.6 |
| 20260505075406 | 19 | 257 | 8.0 | 20.9 | 0.00 | 0.00 | 0.00 | 28 | 1001.6 |
| 20260505074903 | 19 | 255 | 9.7 | 17.7 | 0.00 | 0.00 | 0.00 | 27 | 1001.8 |
| 20260505074400 | 19 | 257 | 14.5 | 24.1 | 0.00 | 0.00 | 0.00 | 27 | 1002.0 |
| 20260505073857 | 19 | 249 | 14.5 | 29.0 | 0.00 | 0.00 | 0.00 | 27 | 1001.8 |
| 20260505073350 | 19 | 245 | 11.3 | 22.5 | 0.00 | 0.00 | 0.00 | 27 | 1001.8 |
| 20260505072847 | 20 | 243 | 12.9 | 24.1 | 0.00 | 0.00 | 0.00 | 26 | 1001.6 |
| 20260505072343 | 20 | 255 | 14.5 | 20.9 | 0.00 | 0.00 | 0.00 | 26 | 1001.7 |
| 20260505071839 | 20 | 251 | 9.7 | 24.1 | 0.00 | 0.00 | 0.00 | 26 | 1002.0 |
| 20260505071335 | 20 | 244 | 11.3 | 30.6 | 0.00 | 0.00 | 0.00 | 26 | 1001.8 |
| 20260505070834 | 20 | 245 | 17.7 | 30.6 | 0.00 | 0.00 | 0.00 | 25 | 1001.8 |
| 20260505070330 | 20 | 243 | 12.9 | 25.7 | 0.00 | 0.00 | 0.00 | 25 | 1001.7 |
| 20260505065825 | 20 | 254 | 14.5 | 30.6 | 0.00 | 0.00 | 0.00 | 25 | 1001.3 |
| 20260505065322 | 20 | 251 | 24.1 | 29.0 | 0.00 | 0.00 | 0.00 | 25 | 1001.7 |
| 20260505064819 | 21 | 247 | 20.9 | 29.0 | 0.00 | 0.00 | 0.00 | 24 | 1001.6 |
| 20260505064316 | 21 | 243 | 24.1 | 33.8 | 0.00 | 0.00 | 0.00 | 24 | 1001.7 |
| 20260505063814 | 21 | 244 | 24.1 | 32.2 | 0.00 | 0.00 | 0.00 | 24 | 1001.7 |
| 20260505063310 | 21 | 239 | 24.1 | 32.2 | 0.00 | 0.00 | 0.00 | 24 | 1001.6 |
| 20260505062806 | 21 | 248 | 20.9 | 35.4 | 0.00 | 0.00 | 0.00 | 24 | 1001.9 |
| 20260505062304 | 21 | 238 | 22.5 | 35.4 | 0.00 | 0.00 | 0.00 | 23 | 1001.4 |
| 20260505061800 | 21 | 245 | 19.3 | 30.6 | 0.00 | 0.00 | 0.00 | 24 | 1001.7 |
| 20260505061259 | 21 | 243 | 22.5 | 27.4 | 0.00 | 0.00 | 0.00 | 23 | 1001.7 |
| 20260505060756 | 21 | 252 | 17.7 | 32.2 | 0.00 | 0.00 | 0.00 | 23 | 1001.8 |
| 20260505060253 | 22 | 243 | 30.6 | 33.8 | 0.00 | 0.00 | 0.00 | 23 | 1001.6 |
| 20260505055749 | 22 | 243 | 19.3 | 37.0 | 0.00 | 0.00 | 0.00 | 22 | 1001.9 |
| 20260505055245 | 22 | 244 | 29.0 | 38.6 | 0.00 | 0.00 | 0.00 | 22 | 1001.6 |
| 20260505054742 | 22 | 241 | 17.7 | 33.8 | 0.00 | 0.00 | 0.00 | 22 | 1001.9 |
| 20260505054240 | 22 | 242 | 14.5 | 37.0 | 0.00 | 0.00 | 0.00 | 22 | 1001.7 |
| 20260505053738 | 22 | 237 | 25.7 | 40.2 | 0.00 | 0.00 | 0.00 | 22 | 1001.8 |
| 20260505053234 | 22 | 245 | 27.4 | 41.8 | 0.00 | 0.00 | 0.00 | 22 | 1001.7 |
| 20260505052731 | 22 | 233 | 32.2 | 43.5 | 0.00 | 0.00 | 0.00 | 22 | 1001.8 |
| 20260505052228 | 22 | 240 | 17.7 | 45.1 | 0.00 | 0.00 | 0.00 | 22 | 1002.0 |
| 20260505051725 | 22 | 239 | 16.1 | 38.6 | 0.00 | 0.00 | 0.00 | 22 | 1001.8 |
| 20260505051223 | 23 | 234 | 22.5 | 38.6 | 0.00 | 0.00 | 0.00 | 21 | 1001.9 |
| 20260505050721 | 23 | 233 | 24.1 | 38.6 | 0.00 | 0.00 | 0.00 | 21 | 1001.6 |
| 20260505050219 | 23 | 244 | 30.6 | 38.6 | 0.00 | 0.00 | 0.00 | 21 | 1001.7 |
| 20260505041649 | 23 | 235 | 24.1 | 35.4 | 0.00 | 0.00 | 0.00 | 22 | 1002.0 |
| 20260505041146 | 23 | 236 | 22.5 | 37.0 | 0.00 | 0.00 | 0.00 | 22 | 1002.1 |
| 20260505040643 | 23 | 229 | 17.7 | 32.2 | 0.00 | 0.00 | 0.00 | 22 | 1002.2 |
| 20260505040140 | 23 | 245 | 24.1 | 38.6 | 0.00 | 0.00 | 0.00 | 22 | 1002.1 |
| 20260505035636 | 23 | 236 | 24.1 | 37.0 | 0.00 | 0.00 | 0.00 | 22 | 1002.0 |
| 20260505035133 | 23 | 238 | 19.3 | 35.4 | 0.00 | 0.00 | 0.00 | 21 | 1002.1 |
| 20260505034629 | 23 | 235 | 27.4 | 45.1 | 0.00 | 0.00 | 0.00 | 21 | 1001.8 |
| 20260505034127 | 23 | 243 | 17.7 | 41.8 | 0.00 | 0.00 | 0.00 | 21 | 1001.9 |
| 20260505033623 | 23 | 246 | 25.7 | 41.8 | 0.00 | 0.00 | 0.00 | 21 | 1001.7 |
| 20260505033122 | 23 | 243 | 20.9 | 40.2 | 0.00 | 0.00 | 0.00 | 21 | 1001.9 |
| 20260505032619 | 24 | 234 | 25.7 | 49.9 | 0.00 | 0.00 | 0.00 | 20 | 1001.6 |
| 20260505032115 | 24 | 239 | 12.9 | 43.5 | 0.00 | 0.00 | 0.00 | 20 | 1001.7 |
| 20260505031613 | 24 | 227 | 32.2 | 46.7 | 0.00 | 0.00 | 0.00 | 19 | 1001.9 |
| 20260505031109 | 24 | 224 | 30.6 | 43.5 | 0.00 | 0.00 | 0.00 | 19 | 1001.7 |
| 20260505030606 | 24 | 230 | 17.7 | 35.4 | 0.00 | 0.00 | 0.00 | 18 | 1001.8 |
| 20260505025557 | 24 | 229 | 19.3 | 37.0 | 0.00 | 0.00 | 0.00 | 16 | 1001.8 |
| 20260505025057 | 24 | 228 | 30.6 | 33.8 | 0.00 | 0.00 | 0.00 | 16 | 1001.7 |
| 20260505024553 | 25 | 231 | 25.7 | 37.0 | 0.00 | 0.00 | 0.00 | 15 | 1001.7 |
| 20260505024051 | 25 | 238 | 27.4 | 40.2 | 0.00 | 0.00 | 0.00 | 15 | 1001.7 |
| 20260505023548 | 25 | 232 | 29.0 | 35.4 | 0.00 | 0.00 | 0.00 | 15 | 1001.7 |
| 20260505023045 | 25 | 233 | 27.4 | 40.2 | 0.00 | 0.00 | 0.00 | 15 | 1001.6 |
| 20260505022543 | 25 | 227 | 20.9 | 41.8 | 0.00 | 0.00 | 0.00 | 15 | 1001.4 |
| 20260505022040 | 25 | 234 | 16.1 | 38.6 | 0.00 | 0.00 | 0.00 | 15 | 1001.4 |
| 20260505021536 | 25 | 226 | 25.7 | 38.6 | 0.00 | 0.00 | 0.00 | 14 | 1001.4 |
| 20260505021032 | 25 | 234 | 11.3 | 38.6 | 0.00 | 0.00 | 0.00 | 14 | 1001.6 |
| 20260505020527 | 25 | 241 | 29.0 | 43.5 | 0.00 | 0.00 | 0.00 | 14 | 1001.4 |
| 20260505020024 | 25 | 245 | 19.3 | 37.0 | 0.00 | 0.00 | 0.00 | 14 | 1001.6 |
| 20260505015521 | 26 | 238 | 32.2 | 43.5 | 0.00 | 0.00 | 0.00 | 14 | 1001.4 |
| 20260505015018 | 26 | 244 | 24.1 | 35.4 | 0.00 | 0.00 | 0.00 | 14 | 1001.2 |
| 20260505014515 | 26 | 241 | 17.7 | 35.4 | 0.00 | 0.00 | 0.00 | 14 | 1001.2 |
| 20260505014013 | 26 | 232 | 20.9 | 33.8 | 0.00 | 0.00 | 0.00 | 14 | 1001.1 |
| 20260505013509 | 26 | 240 | 19.3 | 35.4 | 0.00 | 0.00 | 0.00 | 15 | 1001.3 |
| 20260505013007 | 26 | 240 | 19.3 | 37.0 | 0.00 | 0.00 | 0.00 | 14 | 1001.3 |
| 20260505012505 | 26 | 239 | 24.1 | 32.2 | 0.00 | 0.00 | 0.00 | 14 | 1001.2 |
| 20260505012001 | 26 | 232 | 20.9 | 33.8 | 0.00 | 0.00 | 0.00 | 13 | 1001.2 |
| 20260505011457 | 26 | 236 | 27.4 | 41.8 | 0.00 | 0.00 | 0.00 | 13 | 1001.1 |
| 20260505010954 | 26 | 232 | 24.1 | 38.6 | 0.00 | 0.00 | 0.00 | 13 | 1001.1 |
| 20260505010450 | 27 | 226 | 24.1 | 41.8 | 0.00 | 0.00 | 0.00 | 14 | 1000.9 |
| 20260505005946 | 27 | 235 | 32.2 | 37.0 | 0.00 | 0.00 | 0.00 | 13 | 1001.0 |
| 20260505005443 | 27 | 238 | 35.4 | 46.7 | 0.00 | 0.00 | 0.00 | 13 | 1001.1 |
| 20260505004941 | 27 | 236 | 20.9 | 38.6 | 0.00 | 0.00 | 0.00 | 13 | 1001.1 |
| 20260505004437 | 27 | 233 | 32.2 | 40.2 | 0.00 | 0.00 | 0.00 | 13 | 1001.0 |
| 20260505003934 | 27 | 229 | 27.4 | 49.9 | 0.00 | 0.00 | 0.00 | 13 | 1001.1 |
| 20260505003431 | 27 | 231 | 40.2 | 45.1 | 0.00 | 0.00 | 0.00 | 13 | 1001.2 |
| 20260505002927 | 27 | 239 | 40.2 | 43.5 | 0.00 | 0.00 | 0.00 | 13 | 1001.1 |
| 20260505002423 | 27 | 230 | 32.2 | 35.4 | 0.00 | 0.00 | 0.00 | 12 | 1001.3 |
| 20260505001922 | 28 | 227 | 16.1 | 41.8 | 0.00 | 0.00 | 0.00 | 12 | 1001.4 |
| 20260505001419 | 28 | 235 | 29.0 | 41.8 | 0.00 | 0.00 | 0.00 | 12 | 1001.4 |
| 20260505000916 | 28 | 228 | 20.9 | 40.2 | 0.00 | 0.00 | 0.00 | 12 | 1001.4 |
| 20260505000414 | 28 | 240 | 24.1 | 51.5 | 0.00 | 0.00 | 0.00 | 13 | 1001.4 |
| 20260504235911 | 28 | 249 | 22.5 | 48.3 | 0.00 | 0.00 | 0.00 | 13 | 1001.3 |
| 20260504235408 | 28 | 250 | 16.1 | 37.0 | 0.00 | 0.00 | 0.00 | 19 | 1001.4 |
| 20260504234904 | 28 | 236 | 19.3 | 32.2 | 0.00 | 0.00 | 0.00 | 19 | 1001.4 |
| 20260504234402 | 28 | 237 | 16.1 | 35.4 | 0.00 | 0.00 | 0.00 | 19 | 1001.3 |
| 20260504233858 | 28 | 229 | 17.7 | 32.2 | 0.00 | 0.00 | 0.00 | 17 | 1001.4 |
| 20260504233354 | 28 | 234 | 22.5 | 35.4 | 0.00 | 0.00 | 0.00 | 18 | 1001.6 |
| 20260504232850 | 28 | 224 | 19.3 | 33.8 | 0.00 | 0.00 | 0.00 | 19 | 1001.3 |
| 20260504232348 | 28 | 230 | 14.5 | 29.0 | 0.00 | 0.00 | 0.00 | 20 | 1001.3 |
| 20260504231844 | 28 | 250 | 19.3 | 30.6 | 0.00 | 0.00 | 0.00 | 21 | 1001.4 |
| 20260504231341 | 28 | 234 | 16.1 | 24.1 | 0.00 | 0.00 | 0.00 | 22 | 1001.4 |
| 20260504230837 | 28 | 225 | 17.7 | 35.4 | 0.00 | 0.00 | 0.00 | 21 | 1001.6 |
| 20260504230335 | 28 | 226 | 33.8 | 38.6 | 0.00 | 0.00 | 0.00 | 20 | 1001.6 |
| 20260504225834 | 28 | 244 | 22.5 | 29.0 | 0.00 | 0.00 | 0.00 | 20 | 1001.8 |
| 20260504225330 | 28 | 230 | 17.7 | 29.0 | 0.00 | 0.00 | 0.00 | 19 | 1001.8 |
| 20260504224827 | 28 | 255 | 27.4 | 38.6 | 0.00 | 0.00 | 0.00 | 19 | 1001.6 |
| 20260504224324 | 29 | 224 | 25.7 | 35.4 | 0.00 | 0.00 | 0.00 | 18 | 1001.7 |
| 20260504223821 | 29 | 232 | 14.5 | 40.2 | 0.00 | 0.00 | 0.00 | 18 | 1001.9 |
| 20260504223316 | 29 | 235 | 14.5 | 35.4 | 0.00 | 0.00 | 0.00 | 18 | 1001.9 |
| 20260504222813 | 29 | 230 | 22.5 | 46.7 | 0.00 | 0.00 | 0.00 | 17 | 1002.0 |
| 20260504222310 | 29 | 236 | 32.2 | 38.6 | 0.00 | 0.00 | 0.00 | 17 | 1002.1 |
| 20260504221809 | 29 | 250 | 16.1 | 27.4 | 0.00 | 0.00 | 0.00 | 19 | 1002.1 |
| 20260504221305 | 29 | 247 | 30.6 | 45.1 | 0.00 | 0.00 | 0.00 | 19 | 1002.1 |
| 20260504220802 | 29 | 245 | 32.2 | 37.0 | 0.00 | 0.00 | 0.00 | 18 | 1001.9 |
| 20260504220258 | 29 | 231 | 30.6 | 45.1 | 0.00 | 0.00 | 0.00 | 18 | 1002.4 |
| 20260504215756 | 30 | 246 | 11.3 | 35.4 | 0.00 | 0.00 | 0.00 | 19 | 1002.1 |
| 20260504215252 | 29 | 269 | 6.4 | 37.0 | 0.00 | 0.00 | 0.00 | 17 | 1002.0 |
| 20260504214748 | 30 | 224 | 37.0 | 37.0 | 0.00 | 0.00 | 0.00 | 18 | 1002.2 |
| 20260504214245 | 30 | 237 | 27.4 | 35.4 | 0.00 | 0.00 | 0.00 | 19 | 1002.3 |
| 20260504213742 | 29 | 229 | 14.5 | 32.2 | 0.00 | 0.00 | 0.00 | 19 | 1002.3 |
| 20260504213238 | 28 | 248 | 29.0 | 41.8 | 0.00 | 0.00 | 0.00 | 19 | 1002.3 |
| 20260504212735 | 28 | 252 | 25.7 | 40.2 | 0.00 | 0.00 | 0.00 | 21 | 1002.4 |
| 20260504212231 | 29 | 253 | 17.7 | 32.2 | 0.00 | 0.00 | 0.00 | 20 | 1002.6 |
| 20260504211729 | 30 | 229 | 24.1 | 38.6 | 0.00 | 0.00 | 0.00 | 18 | 1002.6 |
| 20260504211225 | 29 | 232 | 30.6 | 38.6 | 0.00 | 0.00 | 0.00 | 19 | 1002.9 |
| 20260504210723 | 29 | 244 | 19.3 | 41.8 | 0.00 | 0.00 | 0.00 | 21 | 1003.0 |
| 20260504210220 | 29 | 243 | 11.3 | 38.6 | 0.00 | 0.00 | 0.00 | 20 | 1002.9 |
| 20260504205717 | 28 | 243 | 19.3 | 40.2 | 0.00 | 0.00 | 0.00 | 21 | 1003.1 |
| 20260504205215 | 29 | 275 | 19.3 | 43.5 | 0.00 | 0.00 | 0.00 | 21 | 1003.2 |
| 20260504204712 | 28 | 242 | 20.9 | 45.1 | 0.00 | 0.00 | 0.00 | 21 | 1003.3 |
| 20260504204211 | 28 | 252 | 20.9 | 37.0 | 0.00 | 0.00 | 0.00 | 21 | 1003.2 |
| 20260504203710 | 29 | 248 | 25.7 | 48.3 | 0.00 | 0.00 | 0.00 | 19 | 1003.4 |
| 20260504203207 | 29 | 247 | 16.1 | 35.4 | 0.00 | 0.00 | 0.00 | 19 | 1003.6 |
| 20260504202706 | 29 | 216 | 17.7 | 51.5 | 0.00 | 0.00 | 0.00 | 19 | 1003.6 |
| 20260504202204 | 28 | 229 | 17.7 | 33.8 | 0.00 | 0.00 | 0.00 | 20 | 1003.7 |
| 20260504201701 | 28 | 257 | 8.0 | 33.8 | 0.00 | 0.00 | 0.00 | 22 | 1003.6 |
| 20260504201158 | 28 | 238 | 22.5 | 33.8 | 0.00 | 0.00 | 0.00 | 22 | 1003.8 |
| 20260504200656 | 28 | 244 | 20.9 | 43.5 | 0.00 | 0.00 | 0.00 | 22 | 1003.9 |
| 20260504200152 | 28 | 243 | 27.4 | 38.6 | 0.00 | 0.00 | 0.00 | 22 | 1003.9 |
| 20260504195648 | 28 | 243 | 19.3 | 27.4 | 0.00 | 0.00 | 0.00 | 23 | 1004.0 |
| 20260504195144 | 28 | 254 | 38.6 | 43.5 | 0.00 | 0.00 | 0.00 | 21 | 1004.0 |
| 20260504194641 | 28 | 255 | 9.7 | 32.2 | 0.00 | 0.00 | 0.00 | 23 | 1004.2 |
| 20260504194137 | 28 | 265 | 17.7 | 32.2 | 0.00 | 0.00 | 0.00 | 22 | 1004.1 |
| 20260504193633 | 28 | 262 | 25.7 | 38.6 | 0.00 | 0.00 | 0.00 | 22 | 1004.2 |
| 20260504193132 | 28 | 250 | 12.9 | 38.6 | 0.00 | 0.00 | 0.00 | 23 | 1004.4 |
| 20260504192629 | 28 | 240 | 27.4 | 30.6 | 0.00 | 0.00 | 0.00 | 23 | 1004.2 |
| 20260504192127 | 28 | 240 | 24.1 | 41.8 | 0.00 | 0.00 | 0.00 | 23 | 1004.6 |
| 20260504191626 | 27 | 267 | 12.9 | 32.2 | 0.00 | 0.00 | 0.00 | 23 | 1004.6 |
| 20260504191121 | 28 | 273 | 8.0 | 22.5 | 0.00 | 0.00 | 0.00 | 23 | 1004.3 |
| 20260504190617 | 28 | 240 | 25.7 | 40.2 | 0.00 | 0.00 | 0.00 | 23 | 1004.8 |
| 20260504190114 | 28 | 252 | 16.1 | 38.6 | 0.00 | 0.00 | 0.00 | 22 | 1004.4 |
| 20260504185611 | 27 | 278 | 8.0 | 25.7 | 0.00 | 0.00 | 0.00 | 24 | 1004.8 |
| 20260504185107 | 28 | 234 | 25.7 | 37.0 | 0.00 | 0.00 | 0.00 | 23 | 1004.8 |
| 20260504184603 | 28 | 276 | 8.0 | 25.7 | 0.00 | 0.00 | 0.00 | 23 | 1004.9 |
| 20260504184058 | 28 | 267 | 8.0 | 33.8 | 0.00 | 0.00 | 0.00 | 23 | 1005.1 |
| 20260504183556 | 27 | 259 | 14.5 | 25.7 | 0.00 | 0.00 | 0.00 | 25 | 1005.2 |
| 20260504183054 | 28 | 244 | 20.9 | 38.6 | 0.00 | 0.00 | 0.00 | 24 | 1005.1 |
| 20260504182550 | 28 | 256 | 14.5 | 35.4 | 0.00 | 0.00 | 0.00 | 23 | 1005.4 |
| 20260504182048 | 27 | 285 | 9.7 | 32.2 | 0.00 | 0.00 | 0.00 | 24 | 1005.4 |
| 20260504181545 | 27 | 256 | 19.3 | 37.0 | 0.00 | 0.00 | 0.00 | 23 | 1005.7 |
| 20260504181043 | 27 | 289 | 12.9 | 41.8 | 0.00 | 0.00 | 0.00 | 24 | 1005.6 |
| 20260504180542 | 27 | 280 | 12.9 | 25.7 | 0.00 | 0.00 | 0.00 | 24 | 1005.7 |
| 20260504180040 | 27 | 316 | 9.7 | 33.8 | 0.00 | 0.00 | 0.00 | 24 | 1005.7 |
| 20260504175537 | 27 | 250 | 12.9 | 35.4 | 0.00 | 0.00 | 0.00 | 23 | 1005.8 |
| 20260504175034 | 27 | 273 | 11.3 | 35.4 | 0.00 | 0.00 | 0.00 | 23 | 1006.0 |
| 20260504174532 | 28 | 271 | 14.5 | 25.7 | 0.00 | 0.00 | 0.00 | 23 | 1006.0 |
| 20260504174028 | 27 | 246 | 29.0 | 33.8 | 0.00 | 0.00 | 0.00 | 23 | 1006.0 |
| 20260504173525 | 27 | 241 | 14.5 | 32.2 | 0.00 | 0.00 | 0.00 | 24 | 1006.1 |
| 20260504173023 | 27 | 267 | 20.9 | 41.8 | 0.00 | 0.00 | 0.00 | 23 | 1006.3 |
| 20260504172519 | 27 | 292 | 19.3 | 29.0 | 0.00 | 0.00 | 0.00 | 23 | 1006.1 |
| 20260504172015 | 27 | 246 | 19.3 | 30.6 | 0.00 | 0.00 | 0.00 | 24 | 1006.3 |
| 20260504171512 | 27 | 248 | 20.9 | 37.0 | 0.00 | 0.00 | 0.00 | 24 | 1006.2 |
| 20260504171009 | 27 | 249 | 20.9 | 38.6 | 0.00 | 0.00 | 0.00 | 23 | 1006.4 |
| 20260504170505 | 27 | 263 | 12.9 | 32.2 | 0.00 | 0.00 | 0.00 | 23 | 1006.4 |
| 20260504160426 | 25 | 267 | 12.9 | 27.4 | 0.00 | 0.00 | 0.00 | 28 | 1006.8 |
| 20260504150849 | 22 | 257 | 14.5 | 27.4 | 0.00 | 0.00 | 0.00 | 39 | 1007.1 |
| 20260504150345 | 22 | 296 | 8.0 | 27.4 | 0.00 | 0.00 | 0.00 | 39 | 1007.1 |